Time,TemperatureF,DewpointF,PressureIn,WindDirection,WindDirectionDegrees,WindSpeedMPH,WindSpeedGustMPH,Humidity,HourlyPrecipIn,Conditions,Clouds,dailyrainin,SoftwareType,DateUTC
2013-07-01 00:10:00,68.4,67.8,29.76,NE,45,0.0,-999.0,98,-99.99,,,0.02,Acu-Link.com,2013-07-01 04:10:00,
2013-07-01 00:25:00,68.2,67.6,29.77,North,0,0.0,-999.0,98,-99.99,,,0.08,Acu-Link.com,2013-07-01 04:25:00,
2013-07-01 00:41:00,67.8,67.2,29.76,NE,45,0.0,-999.0,98,-99.99,,,0.18,Acu-Link.com,2013-07-01 04:41:00,
2013-07-01 00:56:00,67.8,67.2,29.75,North,0,2.7,-999.0,98,-99.99,,,0.21,Acu-Link.com,2013-07-01 04:56:00,
2013-07-01 01:11:00,67.6,67.0,29.74,NNE,22,1.7,-999.0,98,-99.99,,,0.27,Acu-Link.com,2013-07-01 05:11:00,
2013-07-01 01:26:00,67.6,67.0,29.75,SE,135,0.0,-999.0,98,-99.99,,,0.27,Acu-Link.com,2013-07-01 05:26:00,
2013-07-01 01:41:00,67.5,66.9,29.75,ENE,67,0.0,-999.0,98,-99.99,,,0.27,Acu-Link.com,2013-07-01 05:41:00,
2013-07-01 01:56:00,67.6,67.0,29.76,SSE,157,0.0,-999.0,98,-99.99,,,0.27,Acu-Link.com,2013-07-01 05:56:00,
2013-07-01 02:11:00,67.6,67.0,29.74,West,270,0.0,-999.0,98,-99.99,,,0.27,Acu-Link.com,2013-07-01 06:11:00,
2013-07-01 02:27:00,67.6,67.0,29.73,West,270,0.0,-999.0,98,-99.99,,,0.28,Acu-Link.com,2013-07-01 06:27:00,
2013-07-01 02:42:00,67.5,66.9,29.74,West,270,0.0,-999.0,98,-99.99,,,0.28,Acu-Link.com,2013-07-01 06:42:00,
2013-07-01 02:57:00,67.3,66.7,29.73,NNW,337,1.1,-999.0,98,-99.99,,,0.28,Acu-Link.com,2013-07-01 06:57:00,
2013-07-01 03:12:00,67.3,66.7,29.73,South,180,0.0,-999.0,98,-99.99,,,0.28,Acu-Link.com,2013-07-01 07:12:00,
2013-07-01 03:27:00,67.3,66.7,29.73,WSW,247,0.0,-999.0,98,-99.99,,,0.28,Acu-Link.com,2013-07-01 07:27:00,
2013-07-01 03:42:00,67.5,66.9,29.74,West,270,0.0,-999.0,98,-99.99,,,0.28,Acu-Link.com,2013-07-01 07:42:00,
2013-07-01 03:57:00,67.5,66.9,29.74,NNE,22,0.0,-999.0,98,-99.99,,,0.28,Acu-Link.com,2013-07-01 07:57:00,
2013-07-01 04:13:00,67.5,66.9,29.75,NNE,22,1.7,-999.0,98,-99.99,,,0.28,Acu-Link.com,2013-07-01 08:13:00,
2013-07-01 04:28:00,67.5,66.9,29.75,SSE,157,0.0,-999.0,98,-99.99,,,0.28,Acu-Link.com,2013-07-01 08:28:00,
2013-07-01 04:44:00,67.3,66.7,29.75,NNE,22,1.7,-999.0,98,-99.99,,,0.29,Acu-Link.com,2013-07-01 08:44:00,
2013-07-01 04:59:00,67.1,66.5,29.75,SW,225,0.0,-999.0,98,-99.99,,,0.30,Acu-Link.com,2013-07-01 08:59:00,
2013-07-01 05:15:00,67.1,66.5,29.76,East,90,0.0,-999.0,98,-99.99,,,0.30,Acu-Link.com,2013-07-01 09:15:00,
2013-07-01 05:45:00,67.3,66.7,29.76,NE,45,0.0,-999.0,98,-99.99,,,0.30,Acu-Link.com,2013-07-01 09:45:00,
2013-07-01 06:00:00,67.3,66.7,29.76,NE,45,0.0,-999.0,98,-99.99,,,0.31,Acu-Link.com,2013-07-01 10:00:00,
2013-07-01 06:16:00,67.5,66.9,29.77,SSE,157,0.0,-999.0,98,-99.99,,,0.31,Acu-Link.com,2013-07-01 10:16:00,
2013-07-01 06:31:00,67.6,67.0,29.76,NE,45,1.1,-999.0,98,-99.99,,,0.31,Acu-Link.com,2013-07-01 10:31:00,
2013-07-01 06:46:00,67.8,67.2,29.76,NNE,22,0.0,-999.0,98,-99.99,,,0.31,Acu-Link.com,2013-07-01 10:46:00,
2013-07-01 07:03:00,68.0,67.4,29.76,South,180,0.0,-999.0,98,-99.99,,,0.31,Acu-Link.com,2013-07-01 11:03:00,
2013-07-01 07:18:00,68.2,67.6,29.77,NNE,22,0.0,-999.0,98,-99.99,,,0.31,Acu-Link.com,2013-07-01 11:18:00,
2013-07-01 07:33:00,68.2,67.6,29.78,WSW,247,0.0,-999.0,98,-99.99,,,0.31,Acu-Link.com,2013-07-01 11:33:00,
2013-07-01 07:49:00,68.7,68.1,29.77,SSE,157,0.0,-999.0,98,-99.99,,,0.31,Acu-Link.com,2013-07-01 11:49:00,
2013-07-01 08:05:00,70.0,69.4,29.77,NNE,22,2.2,-999.0,98,-99.99,,,0.31,Acu-Link.com,2013-07-01 12:05:00,
2013-07-01 08:21:00,71.2,70.6,29.78,SSE,157,0.0,-999.0,98,-99.99,,,0.31,Acu-Link.com,2013-07-01 12:21:00,
2013-07-01 08:37:00,71.8,71.2,29.77,NNE,22,2.7,-999.0,98,-99.99,,,0.31,Acu-Link.com,2013-07-01 12:37:00,
2013-07-01 08:54:00,73.0,72.4,29.79,South,180,0.0,-999.0,98,-99.99,,,0.31,Acu-Link.com,2013-07-01 12:54:00,
2013-07-01 09:09:00,73.4,72.8,29.78,NNE,22,1.7,-999.0,98,-99.99,,,0.31,Acu-Link.com,2013-07-01 13:09:00,
2013-07-01 09:28:00,73.9,73.3,29.78,NW,315,1.7,-999.0,98,-99.99,,,0.31,Acu-Link.com,2013-07-01 13:28:00,
2013-07-01 09:45:00,75.0,74.4,29.78,NE,45,2.7,-999.0,98,-99.99,,,0.31,Acu-Link.com,2013-07-01 13:45:00,
2013-07-01 10:01:00,76.3,75.7,29.79,South,180,2.2,-999.0,98,-99.99,,,0.31,Acu-Link.com,2013-07-01 14:01:00,
2013-07-01 10:16:00,77.2,76.3,29.78,ESE,112,3.7,-999.0,97,-99.99,,,0.31,Acu-Link.com,2013-07-01 14:16:00,
2013-07-01 10:33:00,77.2,75.3,29.79,NE,45,2.7,-999.0,94,-99.99,,,0.31,Acu-Link.com,2013-07-01 14:33:00,
2013-07-01 10:48:00,77.7,75.5,29.79,NNE,22,1.1,-999.0,93,-99.99,,,0.31,Acu-Link.com,2013-07-01 14:48:00,
2013-07-01 11:04:00,76.1,75.5,29.79,North,0,0.0,-999.0,98,-99.99,,,0.31,Acu-Link.com,2013-07-01 15:04:00,
2013-07-01 11:19:00,75.7,75.1,29.79,ENE,67,3.2,-999.0,98,-99.99,,,0.31,Acu-Link.com,2013-07-01 15:19:00,
2013-07-01 11:34:00,76.3,75.7,29.79,North,0,2.7,-999.0,98,-99.99,,,0.31,Acu-Link.com,2013-07-01 15:34:00,
2013-07-01 11:49:00,78.6,77.0,29.78,West,270,1.1,-999.0,95,-99.99,,,0.31,Acu-Link.com,2013-07-01 15:49:00,
2013-07-01 12:05:00,77.7,76.5,29.78,North,0,2.2,-999.0,96,-99.99,,,0.31,Acu-Link.com,2013-07-01 16:05:00,
2013-07-01 12:22:00,79.2,75.7,29.79,NNE,22,1.7,-999.0,89,-99.99,,,0.31,Acu-Link.com,2013-07-01 16:22:00,
2013-07-01 12:37:00,78.8,76.9,29.79,WSW,247,2.2,-999.0,94,-99.99,,,0.31,Acu-Link.com,2013-07-01 16:37:00,
2013-07-01 12:53:00,77.4,76.8,29.77,SSE,157,0.0,-999.0,98,-99.99,,,0.32,Acu-Link.com,2013-07-01 16:53:00,
2013-07-01 13:08:00,76.1,75.5,29.77,West,270,1.1,-999.0,98,-99.99,,,0.39,Acu-Link.com,2013-07-01 17:08:00,
2013-07-01 13:23:00,77.0,76.4,29.77,WSW,247,0.0,-999.0,98,-99.99,,,0.40,Acu-Link.com,2013-07-01 17:23:00,
2013-07-01 13:38:00,75.2,74.6,29.77,SSE,157,1.7,-999.0,98,-99.99,,,0.40,Acu-Link.com,2013-07-01 17:38:00,
2013-07-01 13:54:00,75.7,75.1,29.77,SW,225,0.0,-999.0,98,-99.99,,,0.40,Acu-Link.com,2013-07-01 17:54:00,
2013-07-01 14:10:00,76.8,76.2,29.78,NW,315,1.7,-999.0,98,-99.99,,,0.40,Acu-Link.com,2013-07-01 18:10:00,
2013-07-01 14:28:00,75.9,75.3,29.77,WNW,292,1.7,-999.0,98,-99.99,,,0.40,Acu-Link.com,2013-07-01 18:28:00,
2013-07-01 14:44:00,74.3,73.7,29.77,West,270,1.7,-999.0,98,-99.99,,,0.40,Acu-Link.com,2013-07-01 18:44:00,
2013-07-01 14:59:00,74.3,73.7,29.78,ESE,112,2.7,-999.0,98,-99.99,,,0.40,Acu-Link.com,2013-07-01 18:59:00,
2013-07-01 15:14:00,75.2,74.6,29.78,ENE,67,1.7,-999.0,98,-99.99,,,0.40,Acu-Link.com,2013-07-01 19:14:00,
2013-07-01 15:29:00,76.6,76.0,29.77,SSW,202,0.0,-999.0,98,-99.99,,,0.40,Acu-Link.com,2013-07-01 19:29:00,
2013-07-01 15:45:00,77.5,76.9,29.78,WSW,247,2.7,-999.0,98,-99.99,,,0.40,Acu-Link.com,2013-07-01 19:45:00,
2013-07-01 16:00:00,77.7,77.1,29.78,North,0,0.0,-999.0,98,-99.99,,,0.40,Acu-Link.com,2013-07-01 20:00:00,
2013-07-01 16:15:00,78.1,77.2,29.77,East,90,0.0,-999.0,97,-99.99,,,0.40,Acu-Link.com,2013-07-01 20:15:00,
2013-07-01 16:47:00,78.6,77.0,29.76,SSE,157,0.0,-999.0,95,-99.99,,,0.40,Acu-Link.com,2013-07-01 20:47:00,
2013-07-01 17:04:00,82.8,76.7,29.77,WNW,292,2.7,-999.0,82,-99.99,,,0.40,Acu-Link.com,2013-07-01 21:04:00,
2013-07-01 17:23:00,82.8,77.1,29.77,NNW,337,0.0,-999.0,83,-99.99,,,0.40,Acu-Link.com,2013-07-01 21:23:00,
2013-07-01 17:39:00,82.6,77.3,29.77,WSW,247,2.2,-999.0,84,-99.99,,,0.40,Acu-Link.com,2013-07-01 21:39:00,
2013-07-01 17:54:00,81.0,77.1,29.77,West,270,0.0,-999.0,88,-99.99,,,0.40,Acu-Link.com,2013-07-01 21:54:00,
2013-07-01 18:10:00,81.3,76.3,29.77,ENE,67,1.7,-999.0,85,-99.99,,,0.40,Acu-Link.com,2013-07-01 22:10:00,
2013-07-01 18:25:00,81.0,76.4,29.78,West,270,1.7,-999.0,86,-99.99,,,0.40,Acu-Link.com,2013-07-01 22:25:00,
2013-07-01 18:40:00,80.1,75.9,29.78,NNE,22,1.7,-999.0,87,-99.99,,,0.40,Acu-Link.com,2013-07-01 22:40:00,
2013-07-01 18:55:00,78.4,74.9,29.78,West,270,0.0,-999.0,89,-99.99,,,0.40,Acu-Link.com,2013-07-01 22:55:00,
2013-07-01 19:10:00,77.4,74.9,29.79,SSW,202,1.1,-999.0,92,-99.99,,,0.40,Acu-Link.com,2013-07-01 23:10:00,
2013-07-01 19:25:00,77.5,76.3,29.79,NNE,22,2.7,-999.0,96,-99.99,,,0.40,Acu-Link.com,2013-07-01 23:25:00,
2013-07-01 19:41:00,77.4,76.5,29.80,West,270,0.0,-999.0,97,-99.99,,,0.40,Acu-Link.com,2013-07-01 23:41:00,
2013-07-01 19:56:00,76.5,75.9,29.81,West,270,0.0,-999.0,98,-99.99,,,0.40,Acu-Link.com,2013-07-01 23:56:00,
2013-07-01 20:11:00,75.7,75.1,29.82,West,270,0.0,-999.0,98,-99.99,,,0.40,Acu-Link.com,2013-07-02 00:11:00,
2013-07-01 20:26:00,75.2,74.6,29.82,WSW,247,0.0,-999.0,98,-99.99,,,0.40,Acu-Link.com,2013-07-02 00:26:00,
2013-07-01 20:41:00,74.1,73.5,29.82,WSW,247,2.7,-999.0,98,-99.99,,,0.41,Acu-Link.com,2013-07-02 00:41:00,
2013-07-01 20:56:00,72.5,71.9,29.81,SSE,157,0.0,-999.0,98,-99.99,,,0.75,Acu-Link.com,2013-07-02 00:56:00,
2013-07-01 21:11:00,72.1,71.5,29.81,West,270,0.0,-999.0,98,-99.99,,,0.80,Acu-Link.com,2013-07-02 01:11:00,
2013-07-01 21:26:00,71.6,71.0,29.82,South,180,0.0,-999.0,98,-99.99,,,0.80,Acu-Link.com,2013-07-02 01:26:00,
2013-07-01 21:41:00,71.6,71.0,29.83,NNE,22,0.0,-999.0,98,-99.99,,,0.80,Acu-Link.com,2013-07-02 01:41:00,
2013-07-01 21:56:00,71.6,71.0,29.84,NE,45,0.0,-999.0,98,-99.99,,,0.80,Acu-Link.com,2013-07-02 01:56:00,
2013-07-01 22:12:00,71.2,70.6,29.84,ESE,112,0.0,-999.0,98,-99.99,,,0.80,Acu-Link.com,2013-07-02 02:12:00,
2013-07-01 22:27:00,71.1,70.5,29.84,East,90,0.0,-999.0,98,-99.99,,,0.80,Acu-Link.com,2013-07-02 02:27:00,
2013-07-01 22:42:00,71.1,70.5,29.83,ENE,67,0.0,-999.0,98,-99.99,,,0.80,Acu-Link.com,2013-07-02 02:42:00,
2013-07-01 22:57:00,70.7,70.1,29.84,SSW,202,0.0,-999.0,98,-99.99,,,0.80,Acu-Link.com,2013-07-02 02:57:00,
2013-07-01 23:12:00,70.9,70.3,29.84,NNE,22,0.0,-999.0,98,-99.99,,,0.80,Acu-Link.com,2013-07-02 03:12:00,
2013-07-01 23:27:00,70.9,70.3,29.82,NNW,337,0.0,-999.0,98,-99.99,,,0.80,Acu-Link.com,2013-07-02 03:27:00,
2013-07-01 23:42:00,70.7,70.1,29.84,ESE,112,1.1,-999.0,98,-99.99,,,0.80,Acu-Link.com,2013-07-02 03:42:00,
2013-07-01 23:57:00,70.3,69.7,29.85,SW,225,0.0,-999.0,98,-99.99,,,0.80,Acu-Link.com,2013-07-02 03:57:00,